Location: Prosper
(33.2362°N, 96.8011°W)
Time: 01:03:13
(UTC+00:00)

Cosmos 1340 Rocket - Pass Details

Date: 03 December 2021
Orbit: 528 x 557 km, 81.2° (Epoch: 17 January)

Event Time Altitude Azimuth Distance (km) Brightness Sun altitude
Rises 12:26:25 0° 182° (S) 2,660 6.6 -10.1°
Reaches altitude 10° 12:28:33 10° 179° (S) 1,778 5.7 -9.7°
Maximum altitude 12:32:26 70° 96° (E) 574 3.1 -8.9°
Drops below altitude 10° 12:36:23 10° 13° (NNE) 1,807 5.4 -8.2°
Sets 12:38:34 0° 11° (N) 2,708 6.2 -7.7°
